TimePDT,TemperatureF,Dew PointF,Humidity,Sea Level PressureIn,VisibilityMPH,Wind Direction,Wind SpeedMPH,Gust SpeedMPH,PrecipitationIn,Events,Conditions,WindDirDegrees,DateUTC
12:53 AM,57.9,54.0,87,29.99,10.0,SSW,5.8,-,N/A,,Overcast,210,2012-10-04 07:53:00
1:53 AM,57.9,54.0,87,30.00,10.0,SW,4.6,-,N/A,,Overcast,230,2012-10-04 08:53:00
2:27 AM,57.2,53.6,88,30.02,10.0,Variable,4.6,-,N/A,,Overcast,0,2012-10-04 09:27:00
2:53 AM,57.9,54.0,87,30.00,10.0,SW,3.5,-,N/A,,Overcast,220,2012-10-04 09:53:00
3:53 AM,57.9,54.0,87,30.00,10.0,WSW,4.6,-,N/A,,Overcast,240,2012-10-04 10:53:00
4:53 AM,57.9,53.1,84,30.01,10.0,SW,3.5,-,N/A,,Overcast,220,2012-10-04 11:53:00
5:53 AM,57.9,53.1,84,30.02,10.0,WSW,3.5,-,N/A,,Overcast,240,2012-10-04 12:53:00
6:53 AM,59.0,53.1,81,30.04,7.0,SW,3.5,-,N/A,,Overcast,230,2012-10-04 13:53:00
7:53 AM,59.0,53.1,81,30.05,10.0,Calm,Calm,-,N/A,,Overcast,0,2012-10-04 14:53:00
8:53 AM,59.0,53.1,81,30.06,10.0,WSW,5.8,-,N/A,,Overcast,240,2012-10-04 15:53:00
9:53 AM,60.1,52.0,75,30.08,10.0,WSW,5.8,-,N/A,,Overcast,240,2012-10-04 16:53:00
10:09 AM,60.8,51.8,72,30.11,10.0,WSW,5.8,-,N/A,,Overcast,250,2012-10-04 17:09:00
10:53 AM,60.1,53.1,78,30.10,10.0,SW,5.8,-,N/A,,Overcast,220,2012-10-04 17:53:00
11:53 AM,63.0,53.1,70,30.11,10.0,WSW,4.6,-,N/A,,Overcast,250,2012-10-04 18:53:00
12:53 PM,63.0,53.1,70,30.10,10.0,South,5.8,-,N/A,,Overcast,190,2012-10-04 19:53:00
1:53 PM,66.9,53.1,61,30.08,10.0,South,6.9,-,N/A,,Scattered Clouds,180,2012-10-04 20:53:00
2:00 PM,66.2,53.6,64,30.09,10.0,South,4.6,-,N/A,,Mostly Cloudy,190,2012-10-04 21:00:00
2:07 PM,66.2,53.6,64,30.09,10.0,SW,9.2,-,N/A,,Scattered Clouds,220,2012-10-04 21:07:00
3:53 PM,68.0,52.0,56,30.06,10.0,South,12.7,-,N/A,,Clear,190,2012-10-04 22:53:00
4:53 PM,66.0,51.1,59,30.06,10.0,South,10.4,-,N/A,,Clear,180,2012-10-04 23:53:00
6:53 PM,59.0,51.1,75,30.07,6.0,South,6.9,-,N/A,,Haze,190,2012-10-05 01:53:00
7:53 PM,55.9,50.0,80,30.08,10.0,SSE,4.6,-,N/A,,Haze,160,2012-10-05 02:53:00
8:53 PM,54.0,50.0,86,30.09,9.0,SE,5.8,-,N/A,,Haze,140,2012-10-05 03:53:00
9:53 PM,54.0,50.0,86,30.09,10.0,SSE,4.6,-,N/A,,Haze,150,2012-10-05 04:53:00
10:53 PM,53.1,48.9,86,30.11,9.0,SSE,4.6,-,N/A,,Haze,150,2012-10-05 05:53:00
11:53 PM,53.1,50.0,89,30.11,9.0,Calm,Calm,-,N/A,,Haze,0,2012-10-05 06:53:00